Regional Weather Roundup
Issued by NWS

Home | Current Version | Previous Version | Graphics & Text | Print | Product List | Glossary On
Versions: 1 2 3 4 5 6 7 8 9 10 11 12 13 14 15 16 17 18 19 20 21 22 23 24 25 26 27 28 29 30 31 32 33 34 35 36 37 38 39 40 41 42 43 44 45 46 47 48 49 50
000
ASUS43 KIND 260409
RWRIN

WEATHER ROUNDUP FOR INDIANA
NATIONAL WEATHER SERVICE INDIANAPOLIS IN
1200 AM EDT WED APR 26 2017

NOTE: "FAIR" INDICATES FEW OR NO CLOUDS BELOW 12,000 FEET WITH NO
SIGNIFICANT WEATHER AND/OR OBSTRUCTIONS TO VISIBILITY.

* - STATION DOES NOT REPORT WEATHER SUCH AS PRECIPITATION OR FOG.

+ - STATION NOT QUALITY CONTROLLED BY THE NATIONAL WEATHER SERVICE.
    USE DATA WITH CAUTION...ESPECIALLY DEWPOINT AND RELATIVE
    HUMIDITY OBSERVATIONS.

INZ001>003-010>013-019-020-260500-
NORTHWEST INDIANA

CITY           SKY/WX    TMP DP  RH WIND       PRES   REMARKS
GARY /AIRPORT/ CLOUDY    71  51  49 SE6       29.60S
KNOX *+        CLOUDY    68  32  26 S9        29.62R
LA PORTE +     CLOUDY    66  55  68 S8        29.62S
MICHIGAN CITY+ CLOUDY    68  54  60 S5        29.62S
MONTICELLO +   CLOUDY    67  54  63 SE7       29.62R
RENSSELAER +   MOCLDY    66  54  63 SE6       29.62R
VALPARAISO     CLOUDY    70  55  59 S9        29.61F

$$

LMZ046-743>745-260500-
SOUTHERN LAKE MICHIGAN

STATION/POSITION TIME  TEMP    WIND        PRES    WAVE
                       AIR SEA DIR/SP/G            HT
                 (UTC) (F)     (DEG/KT/KT) (MB)    (FT)
BURNS HARBOR     0340   71     170/  9/ 16 1003.0S
MICHIGAN CITY    0340   70     140/  9/ 12   N/A

$$

INZ004-005-014>016-021>024-260500-
NORTH CENTRAL INDIANA

CITY           SKY/WX    TMP DP  RH WIND       PRES   REMARKS
GOSHEN         PTCLDY    62  52  69 SE6       29.66R
LOGANSPORT +   CLOUDY    63  54  72 SE8       29.65S
PERU/GRISSOM   CLOUDY    64  57  77 S8        29.64S
ROCHESTER +    CLOUDY    68  55  64 SE6       29.64F
SOUTH BEND     PTCLDY    67  55  65 SW8       29.64S
WARSAW +       PTCLDY    64  54  68 CALM      29.66S

$$

INZ006>009-017-018-025>027-260500-
NORTHEAST INDIANA

CITY           SKY/WX    TMP DP  RH WIND       PRES   REMARKS
ANGOLA *+      CLEAR     59  54  82 SE7       29.69S
AUBURN +       CLEAR     61  52  72 E3        29.69R
FORT WAYNE     MOCLDY    63  53  70 SE5       29.68R
HUNTINGTON +   PTCLDY    64  54  69 CALM      29.67S
KENDALLVILLE + CLEAR     61  55  81 E3        29.69R

$$

INZ028-029-035-036-043>045-051>053-260500-
WEST CENTRAL INDIANA

CITY           SKY/WX    TMP DP  RH WIND       PRES   REMARKS
CRAWFORDSVL +  CLOUDY    65  55  68 SE8       29.64R
GREENCASTLE +  CLOUDY    64  54  68 S10       29.64S
LAFAYETTE      CLOUDY    66  56  70 SE8       29.62S
TERRE HAUTE    CLOUDY    67  54  63 S7        29.63R

$$

INZ030>032-037>040-046>048-054>057-064-065-260500-
CENTRAL INDIANA

CITY           SKY/WX    TMP DP  RH WIND       PRES   REMARKS
CP ATTERBURY + CLEAR     64  54  68 S7        29.66S
FISHERS *+     CLOUDY    64  57  77 S8        29.67R
FRANKFORT +    CLOUDY    68  57  68 S3        29.66S
GREENWOOD *+   CLOUDY    66  55  66 S7        29.66S
INDIANAPOLIS   CLOUDY    67  55  65 S10       29.66R
-EAGLE CREEK   CLOUDY    69  54  58 S7        29.65R
KOKOMO +       CLOUDY    65  56  72 SE8       29.67R
MARION +       CLOUDY    64  55  72 S6        29.68R
MT COMFORT *+  PTCLDY    64  54  68 SE8       29.65F
SHELBYVILLE    PTCLDY    67  54  63 S12       29.66S
ZIONSVILLE +   CLOUDY    66  55  65 S7        29.67R

$$

INZ033-034-041-042-049-050-058-059-260500-
EAST CENTRAL INDIANA

CITY           SKY/WX    TMP DP  RH WIND       PRES   REMARKS
MUNCIE         MOCLDY    68  55  63 VRB5      29.68R
RICHMOND +     CLEAR     55  52  88 S7        29.70R

$$

INZ060-061-067>069-081>083-085>088-260500-
SOUTHWEST INDIANA

CITY           SKY/WX    TMP DP  RH WIND       PRES   REMARKS
EVANSVILLE     MOCLDY    68  56  65 SE5       29.62S
HUNTINGBURG *+ MOCLDY    66  56  70 SE7       29.64F
WASHINGTON +   MOCLDY   N/A N/A N/A MISG      29.62S

$$

INZ062-063-066-070>080-084-089>092-260500-
SOUTH CENTRAL AND SOUTHEAST INDIANA

CITY           SKY/WX    TMP DP  RH WIND       PRES   REMARKS
BEDFORD +      CLOUDY    66  54  63 SE12      29.63F
BLOOMINGTON    CLOUDY    67  54  63 S8        29.65S
MADISON *+     CLEAR     63  54  72 SE3       29.71S
NORTH VERNON + CLEAR     63  54  72 S5        29.68F
SEYMOUR +      CLEAR     64  55  72 SE7       29.67S

$$





USA.gov is the U.S. government's official web portal to all federal, state and local government web resources and services.